Flag for Germany Weather past 2 weeks in Garbsen, Lower Saxony, Germany

Now
61 °F

Passing clouds.


Feels Like: 61 °F
Forecast: 47 / 69 °F
Wind: 25 mph from West

Location: Hannover

Current Time: Aug 20, 2014 at 4:58:53 PM

Latest Report: Aug 20, 2014 at 4:20 PM


Visibility: N/A

Pressure: 29.95 "Hg

Humidity: 55%

Dew point: 45 °F

Location of GarbsenLocation

Historic Weather in Garbsen — Graph

°F

Garbsen temperature yesterday

Maximum temperature yesterday: 59 °F (at 1:20 PM)
Minimum temperature yesterday: 52 °F (at 5:50 AM)
Average temperature yesterday: 55 °F

Past Weeks' High & Low Weather Summary

 TemperatureHumidityPressure
High79 °F (Aug 8, 4:50 PM)100% (Aug 6, 2:20 AM)30.09 "Hg (Aug 6, 2:20 AM)
Low50 °F (Aug 20, 12:50 AM)38% (Aug 11, 4:50 PM)29.59 "Hg (Aug 10, 8:50 PM)
Average62 °F75%29.84 "Hg
* Reported Aug 5 3:20 PM — Aug 20 3:50 PM, Garbsen, Weather by CustomWeather, © 2014

Note: Actual official high and low records may vary slightly from our data, if they occured in-between our weather recording intervals... More about our weather records

Advertising

Garbsen weather history for previous 24 hours

 ConditionsComfort  
Time TempWeatherWind HumidityBarometerVisibility
3:50 PM
Aug 20
63 °FPassing clouds.13 mph56%29.95 "HgN/A
3:20 PM61 °FScattered showers. Passing clouds.13 mph55%29.95 "HgN/A
2:50 PM61 °FScattered showers. Scattered clouds.12 mph59%29.95 "HgN/A
2:20 PM61 °FScattered clouds.12 mph63%29.95 "HgN/A
1:50 PM63 °FScattered clouds.14 mph59%29.95 "HgN/A
1:20 PM61 °FScattered showers. Scattered clouds.15 mph59%29.95 "HgN/A
12:50 PM63 °FScattered clouds.13 mph59%29.95 "HgN/A
12:20 PM61 °FPartly sunny.13 mph59%29.95 "HgN/A
11:50 AM59 °FPartly sunny.13 mph68%29.95 "HgN/A
11:20 AM61 °FScattered clouds.16 mph68%29.95 "HgN/A
10:50 AM57 °FScattered clouds.14 mph72%29.95 "HgN/A
10:20 AM57 °FPassing clouds.13 mph77%29.95 "HgN/A
9:50 AM55 °FPassing clouds.12 mph77%29.95 "HgN/A
9:20 AM55 °FPassing clouds.13 mph77%29.92 "HgN/A
8:50 AM54 °FPassing clouds.9 mph82%29.92 "HgN/A
8:20 AM52 °FPassing clouds.10 mph88%29.92 "HgN/A
7:50 AM52 °FPassing clouds.10 mph82%29.92 "HgN/A
7:20 AM50 °FPassing clouds.12 mph88%29.92 "HgN/A
6:50 AM50 °FPassing clouds.9 mph88%29.89 "HgN/A
6:20 AM50 °FPassing clouds.9 mph88%29.89 "HgN/A
5:50 AM50 °FPassing clouds.10 mph88%29.89 "HgN/A
5:20 AM50 °FPassing clouds.10 mph88%29.89 "HgN/A
4:50 AM50 °FPassing clouds.10 mph88%29.89 "HgN/A
4:20 AM50 °FPassing clouds.13 mph82%29.89 "HgN/A
3:50 AM50 °FPassing clouds.13 mph88%29.89 "HgN/A
3:20 AM50 °FPassing clouds.14 mph88%29.86 "HgN/A
2:50 AM52 °FPassing clouds.12 mph82%29.86 "HgN/A
2:20 AM50 °FPassing clouds.10 mph88%29.86 "HgN/A
1:50 AM50 °FPassing clouds.10 mph88%29.86 "HgN/A
1:20 AM50 °FPassing clouds.13 mph88%29.86 "HgN/A
12:50 AM50 °FPassing clouds.10 mph88%29.86 "HgN/A
12:20 AM52 °FCool.9 mph82%29.86 "HgN/A
11:50 PM
Aug 19
52 °FPassing clouds.10 mph82%29.86 "HgN/A
11:20 PM52 °FPassing clouds.9 mph82%29.86 "HgN/A
10:50 PM54 °FPassing clouds.12 mph77%29.86 "HgN/A
10:20 PM54 °FPassing clouds.10 mph77%29.83 "HgN/A
9:50 PM54 °FPassing clouds.13 mph77%29.83 "HgN/A
9:20 PM55 °FBroken clouds.12 mph72%29.83 "HgN/A
8:50 PM55 °FBroken clouds.15 mph72%29.83 "HgN/A
8:20 PM55 °FBroken clouds.12 mph72%29.80 "HgN/A
7:50 PM57 °FPartly sunny.8 mph67%29.80 "HgN/A
7:20 PM57 °FPartly sunny.12 mph67%29.77 "HgN/A
6:50 PM57 °FScattered showers. Broken clouds.13 mph77%29.77 "HgN/A
6:20 PM57 °FPartly sunny.9 mph82%29.77 "HgN/A
5:50 PM57 °FPassing clouds.12 mph82%29.80 "HgN/A
5:20 PM55 °FSprinkles. Broken clouds.8 mph88%29.80 "HgN/A
4:50 PM55 °FScattered showers. Broken clouds.14 mph82%29.77 "HgN/A
4:20 PM55 °FPartly sunny.13 mph88%29.77 "HgN/A
Weather by CustomWeather, © 2014

See weather overviewHow to use our weather pages